owner,sensor,date,latitude,longitude,vertical_datum,direction_of_sea_water_velocity,sea_water_speed,upward_sea_water_velocity,qcFlag 
TABS,ioos:station:wmo:42046:1,2009-04-01T00:00:00Z,27.8903,-94.0367,2.0,191.8832702,22.92124124,-99999.0,'11111222,11111222,99999999' 
TABS,ioos:station:wmo:42046:1,2009-04-01T00:30:00Z,27.8903,-94.0367,2.0,193.9672243,26.26662712,-99999.0,'11111222,11111222,99999999' 
TABS,ioos:station:wmo:42046:1,2009-04-01T01:00:00Z,27.8903,-94.0367,2.0,193.4446913,19.74102581,-99999.0,'11111222,11111222,99999999' 
TABS,ioos:station:wmo:42046:1,2009-04-01T01:30:00Z,27.8903,-94.0367,2.0,207.0207025,25.29072953,-99999.0,'11111222,11111222,99999999' 
TABS,ioos:station:wmo:42046:1,2009-04-01T02:00:00Z,27.8903,-94.0367,2.0,214.1574875,26.50168485,-99999.0,'11111222,11111222,99999999' 
TABS,ioos:station:wmo:42046:1,2009-04-01T02:30:00Z,27.8903,-94.0367,2.0,228.9355309,23.90000837,-99999.0,'11111222,11111222,99999999' 
TABS,ioos:station:wmo:42046:1,2009-04-01T03:00:00Z,27.8903,-94.0367,2.0,242.0468415,22.52828444,-99999.0,'11111222,11111222,99999999' 
TABS,ioos:station:wmo:42046:1,2009-04-01T03:30:00Z,27.8903,-94.0367,2.0,252.6245498,22.73750426,-99999.0,'11111222,11111222,99999999' 
TABS,ioos:station:wmo:42046:1,2009-04-01T04:00:00Z,27.8903,-94.0367,2.0,248.7034054,24.00948354,-99999.0,'11111222,11111222,99999999' 
TABS,ioos:station:wmo:42046:1,2009-04-01T04:30:00Z,27.8903,-94.0367,2.0,254.5974588,26.65738922,-99999.0,'11111222,11111222,99999999' 
TABS,ioos:station:wmo:42046:1,2009-04-01T05:00:00Z,27.8903,-94.0367,2.0,256.1403732,28.26281125,-99999.0,'11111222,11111222,99999999' 
TABS,ioos:station:wmo:42046:1,2009-04-01T05:30:00Z,27.8903,-94.0367,2.0,268.9598079,28.10462773,-99999.0,'11111222,11111222,99999999' 
TABS,ioos:station:wmo:42046:1,2009-04-01T06:00:00Z,27.8903,-94.0367,2.0,275.0428602,26.28171418,-99999.0,'11111222,11111222,99999999' 
TABS,ioos:station:wmo:42046:1,2009-04-01T06:30:00Z,27.8903,-94.0367,2.0,276.5543278,28.12379242,-99999.0,'11111222,11111222,99999999' 
TABS,ioos:station:wmo:42046:1,2009-04-01T07:00:00Z,27.8903,-94.0367,2.0,282.034067,26.86024758,-99999.0,'11111222,11111222,99999999' 
TABS,ioos:station:wmo:42046:1,2009-04-01T07:30:00Z,27.8903,-94.0367,2.0,286.0260449,28.43503825,-99999.0,'11111222,11111222,99999999' 
TABS,ioos:station:wmo:42046:1,2009-04-01T08:00:00Z,27.8903,-94.0367,2.0,285.2337695,27.74485538,-99999.0,'11111222,11111222,99999999' 
TABS,ioos:station:wmo:42046:1,2009-04-01T08:30:00Z,27.8903,-94.0367,2.0,299.0150669,29.29690257,-99999.0,'11111222,11111222,99999999' 
TABS,ioos:station:wmo:42046:1,2009-04-01T09:00:00Z,27.8903,-94.0367,2.0,306.4852521,30.65869208,-99999.0,'11111222,11111222,99999999' 
TABS,ioos:station:wmo:42046:1,2009-04-01T09:30:00Z,27.8903,-94.0367,2.0,310.0966635,30.27599049,-99999.0,'11111222,11111222,99999999' 
TABS,ioos:station:wmo:42046:1,2009-04-01T10:00:00Z,27.8903,-94.0367,2.0,305.4004566,30.01987675,-99999.0,'11111222,11111222,99999999' 
TABS,ioos:station:wmo:42046:1,2009-04-01T10:30:00Z,27.8903,-94.0367,2.0,306.8632284,32.72200024,-99999.0,'11111222,11111222,99999999' 
TABS,ioos:station:wmo:42046:1,2009-04-01T11:00:00Z,27.8903,-94.0367,2.0,312.7291574,34.97268934,-99999.0,'11111222,11111222,99999999' 
TABS,ioos:station:wmo:42046:1,2009-04-01T11:30:00Z,27.8903,-94.0367,2.0,310.9506232,29.73737884,-99999.0,'11111222,11111222,99999999' 
TABS,ioos:station:wmo:42046:1,2009-04-01T12:00:00Z,27.8903,-94.0367,2.0,313.862292,35.60277798,-99999.0,'11111222,11111222,99999999' 
TABS,ioos:station:wmo:42046:1,2009-04-01T12:30:00Z,27.8903,-94.0367,2.0,319.3990108,40.01282294,-99999.0,'11111222,11111222,99999999' 
TABS,ioos:station:wmo:42046:1,2009-04-01T13:00:00Z,27.8903,-94.0367,2.0,314.8997383,36.25342053,-99999.0,'11111222,11111222,99999999' 
TABS,ioos:station:wmo:42046:1,2009-04-01T13:30:00Z,27.8903,-94.0367,2.0,317.4919739,33.34332467,-99999.0,'11111222,11111222,99999999' 
TABS,ioos:station:wmo:42046:1,2009-04-01T14:00:00Z,27.8903,-94.0367,2.0,322.4153825,36.38083287,-99999.0,'11111222,11111222,99999999' 
TABS,ioos:station:wmo:42046:1,2009-04-01T14:30:00Z,27.8903,-94.0367,2.0,327.3778178,29.92017547,-99999.0,'11111222,11111222,99999999' 
TABS,ioos:station:wmo:42046:1,2009-04-01T15:00:00Z,27.8903,-94.0367,2.0,328.8323005,34.16102018,-99999.0,'11111222,11111222,99999999' 
TABS,ioos:station:wmo:42046:1,2009-04-01T15:30:00Z,27.8903,-94.0367,2.0,328.1658031,33.40492179,-99999.0,'11111222,11111222,99999999' 
TABS,ioos:station:wmo:42046:1,2009-04-01T16:00:00Z,27.8903,-94.0367,2.0,329.8969406,35.28981298,-99999.0,'11111222,11111222,99999999' 
TABS,ioos:station:wmo:42046:1,2009-04-01T16:30:00Z,27.8903,-94.0367,2.0,329.6870924,38.51592009,-99999.0,'11111222,11111222,99999999' 
TABS,ioos:station:wmo:42046:1,2009-04-01T17:00:00Z,27.8903,-94.0367,2.0,327.8435734,34.51471136,-99999.0,'11111222,11111222,99999999' 
TABS,ioos:station:wmo:42046:1,2009-04-01T17:30:00Z,27.8903,-94.0367,2.0,330.1739744,34.03888659,-99999.0,'11111222,11111222,99999999' 
TABS,ioos:station:wmo:42046:1,2009-04-01T18:00:00Z,27.8903,-94.0367,2.0,333.3167413,36.76550829,-99999.0,'11111222,11111222,99999999' 
TABS,ioos:station:wmo:42046:1,2009-04-01T18:30:00Z,27.8903,-94.0367,2.0,333.5544785,34.37738355,-99999.0,'11111222,11111222,99999999' 
TABS,ioos:station:wmo:42046:1,2009-04-01T19:00:00Z,27.8903,-94.0367,2.0,334.4249481,33.65784455,-99999.0,'11111222,11111222,99999999' 
TABS,ioos:station:wmo:42046:1,2009-04-01T19:30:00Z,27.8903,-94.0367,2.0,335.5275312,32.95030501,-99999.0,'11111222,11111222,99999999' 
TABS,ioos:station:wmo:42046:1,2009-04-01T20:00:00Z,27.8903,-94.0367,2.0,340.2664263,30.83064222,-99999.0,'11111222,11111222,99999999' 
TABS,ioos:station:wmo:42046:1,2009-04-01T20:30:00Z,27.8903,-94.0367,2.0,337.7547325,34.49765934,-99999.0,'11111222,11111222,99999999' 
TABS,ioos:station:wmo:42046:1,2009-04-01T21:00:00Z,27.8903,-94.0367,2.0,344.5507569,32.05840919,-99999.0,'11111222,11111222,99999999' 
TABS,ioos:station:wmo:42046:1,2009-04-01T21:30:00Z,27.8903,-94.0367,2.0,344.9669875,30.80426269,-99999.0,'11111222,11111222,99999999' 
TABS,ioos:station:wmo:42046:1,2009-04-01T22:00:00Z,27.8903,-94.0367,2.0,344.7572902,33.05280926,-99999.0,'11111222,11111222,99999999' 
TABS,ioos:station:wmo:42046:1,2009-04-01T22:30:00Z,27.8903,-94.0367,2.0,345.8707121,32.77145709,-99999.0,'11111222,11111222,99999999' 
TABS,ioos:station:wmo:42046:1,2009-04-01T23:00:00Z,27.8903,-94.0367,2.0,347.8597952,33.28440476,-99999.0,'11111222,11111222,99999999' 
TABS,ioos:station:wmo:42046:1,2009-04-01T23:30:00Z,27.8903,-94.0367,2.0,350.1450716,29.97228386,-99999.0,'11111222,11111222,99999999' 
TABS,ioos:station:wmo:42046:1,2009-04-02T00:00:00Z,27.8903,-94.0367,2.0,351.5752713,31.32807367,-99999.0,'11111222,11111222,99999999' 
TABS,ioos:station:wmo:42046:1,2009-04-02T00:30:00Z,27.8903,-94.0367,2.0,351.7434721,30.70830832,-99999.0,'11111222,11111222,99999999' 
TABS,ioos:station:wmo:42046:1,2009-04-02T01:00:00Z,27.8903,-94.0367,2.0,353.2668887,28.48648276,-99999.0,'11111222,11111222,99999999' 
TABS,ioos:station:wmo:42046:1,2009-04-02T01:30:00Z,27.8903,-94.0367,2.0,354.5827725,34.42376214,-99999.0,'11111222,11111222,99999999' 
TABS,ioos:station:wmo:42046:1,2009-04-02T02:00:00Z,27.8903,-94.0367,2.0,353.3584336,28.53148436,-99999.0,'11111222,11111222,99999999' 
TABS,ioos:station:wmo:42046:1,2009-04-02T02:30:00Z,27.8903,-94.0367,2.0,358.1864181,26.22313864,-99999.0,'11111222,11111222,99999999' 
TABS,ioos:station:wmo:42046:1,2009-04-02T03:00:00Z,27.8903,-94.0367,2.0,357.3272655,28.09056247,-99999.0,'11111222,11111222,99999999' 
TABS,ioos:station:wmo:42046:1,2009-04-02T03:30:00Z,27.8903,-94.0367,2.0,2.226463562,24.1982644,-99999.0,'11111222,11111222,99999999' 
TABS,ioos:station:wmo:42046:1,2009-04-02T04:00:00Z,27.8903,-94.0367,2.0,353.2297748,27.05869546,-99999.0,'11111222,11111222,99999999' 
TABS,ioos:station:wmo:42046:1,2009-04-02T04:30:00Z,27.8903,-94.0367,2.0,355.3868022,26.60620228,-99999.0,'11111222,11111222,99999999' 
TABS,ioos:station:wmo:42046:1,2009-04-02T05:00:00Z,27.8903,-94.0367,2.0,350.8468266,26.52780617,-99999.0,'11111222,11111222,99999999' 
TABS,ioos:station:wmo:42046:1,2009-04-02T05:30:00Z,27.8903,-94.0367,2.0,358.158298,22.71173485,-99999.0,'11111222,11111222,99999999' 
TABS,ioos:station:wmo:42046:1,2009-04-02T06:00:00Z,27.8903,-94.0367,2.0,358.7887007,23.17518069,-99999.0,'11111222,11111222,99999999' 
TABS,ioos:station:wmo:42046:1,2009-04-02T06:30:00Z,27.8903,-94.0367,2.0,353.2515206,21.52917323,-99999.0,'11111222,11111222,99999999' 
TABS,ioos:station:wmo:42046:1,2009-04-02T07:00:00Z,27.8903,-94.0367,2.0,357.3611968,19.98119116,-99999.0,'11111222,11111222,99999999' 
TABS,ioos:station:wmo:42046:1,2009-04-02T07:30:00Z,27.8903,-94.0367,2.0,354.862568,20.1007562,-99999.0,'11111222,11111222,99999999' 
TABS,ioos:station:wmo:42046:1,2009-04-02T08:00:00Z,27.8903,-94.0367,2.0,350.2581048,18.85185667,-99999.0,'11111222,11111222,99999999' 
TABS,ioos:station:wmo:42046:1,2009-04-02T08:30:00Z,27.8903,-94.0367,2.0,353.157453,19.13631103,-99999.0,'11111222,11111222,99999999' 
TABS,ioos:station:wmo:42046:1,2009-04-02T09:00:00Z,27.8903,-94.0367,2.0,346.9725424,24.6648434,-99999.0,'11111222,11111222,99999999' 
TABS,ioos:station:wmo:42046:1,2009-04-02T09:30:00Z,27.8903,-94.0367,2.0,348.842889,23.56539836,-99999.0,'11111222,11111222,99999999' 
TABS,ioos:station:wmo:42046:1,2009-04-02T10:00:00Z,27.8903,-94.0367,2.0,345.7101641,21.3506206,-99999.0,'11111222,11111222,99999999' 
TABS,ioos:station:wmo:42046:1,2009-04-02T10:30:00Z,27.8903,-94.0367,2.0,343.9293448,24.45573348,-99999.0,'11111222,11111222,99999999' 
TABS,ioos:station:wmo:42046:1,2009-04-02T11:00:00Z,27.8903,-94.0367,2.0,340.3908761,25.14855264,-99999.0,'11111222,11111222,99999999' 
TABS,ioos:station:wmo:42046:1,2009-04-02T11:30:00Z,27.8903,-94.0367,2.0,337.5566071,25.51242834,-99999.0,'11111222,11111222,99999999' 
TABS,ioos:station:wmo:42046:1,2009-04-02T12:00:00Z,27.8903,-94.0367,2.0,343.1558628,26.08935607,-99999.0,'11111222,11111222,99999999' 
TABS,ioos:station:wmo:42046:1,2009-04-02T12:30:00Z,27.8903,-94.0367,2.0,344.2423369,29.38432916,-99999.0,'11111222,11111222,99999999' 
TABS,ioos:station:wmo:42046:1,2009-04-02T13:00:00Z,27.8903,-94.0367,2.0,340.5209685,29.14839275,-99999.0,'11111222,11111222,99999999' 
TABS,ioos:station:wmo:42046:1,2009-04-02T13:30:00Z,27.8903,-94.0367,2.0,343.4825726,27.50507771,-99999.0,'11111222,11111222,99999999' 
TABS,ioos:station:wmo:42046:1,2009-04-02T14:00:00Z,27.8903,-94.0367,2.0,343.0681827,26.16419882,-99999.0,'11111222,11111222,99999999' 
TABS,ioos:station:wmo:42046:1,2009-04-02T14:30:00Z,27.8903,-94.0367,2.0,344.7787041,25.44258045,-99999.0,'11111222,11111222,99999999' 
TABS,ioos:station:wmo:42046:1,2009-04-02T15:00:00Z,27.8903,-94.0367,2.0,347.5731032,23.83852554,-99999.0,'11111222,11111222,99999999' 
TABS,ioos:station:wmo:42046:1,2009-04-02T15:30:00Z,27.8903,-94.0367,2.0,347.6744398,26.32684561,-99999.0,'11111222,11111222,99999999' 
TABS,ioos:station:wmo:42046:1,2009-04-02T16:00:00Z,27.8903,-94.0367,2.0,351.0706142,24.93218402,-99999.0,'11111222,11111222,99999999' 
TABS,ioos:station:wmo:42046:1,2009-04-02T16:30:00Z,27.8903,-94.0367,2.0,357.4263503,25.3856101,-99999.0,'11111222,11111222,99999999' 
TABS,ioos:station:wmo:42046:1,2009-04-02T17:00:00Z,27.8903,-94.0367,2.0,3.84090147,24.33465225,-99999.0,'11111222,11111222,99999999' 
TABS,ioos:station:wmo:42046:1,2009-04-02T17:30:00Z,27.8903,-94.0367,2.0,9.00593113,22.48720747,-99999.0,'11111222,11111222,99999999' 
TABS,ioos:station:wmo:42046:1,2009-04-02T18:00:00Z,27.8903,-94.0367,2.0,18.60979748,20.74463786,-99999.0,'11111222,11111222,99999999' 
TABS,ioos:station:wmo:42046:1,2009-04-02T18:30:00Z,27.8903,-94.0367,2.0,22.04275594,15.88080602,-99999.0,'11111222,11111222,99999999' 
TABS,ioos:station:wmo:42046:1,2009-04-02T19:00:00Z,27.8903,-94.0367,2.0,24.34200811,16.25503307,-99999.0,'11111222,11111222,99999999' 
TABS,ioos:station:wmo:42046:1,2009-04-02T19:30:00Z,27.8903,-94.0367,2.0,22.09031347,15.47604601,-99999.0,'11111222,11111222,99999999' 
TABS,ioos:station:wmo:42046:1,2009-04-02T20:00:00Z,27.8903,-94.0367,2.0,29.29459401,15.77770579,-99999.0,'11111222,11111222,99999999' 
TABS,ioos:station:wmo:42046:1,2009-04-02T20:30:00Z,27.8903,-94.0367,2.0,32.03007585,14.83891169,-99999.0,'11111222,11111222,99999999' 
TABS,ioos:station:wmo:42046:1,2009-04-02T21:00:00Z,27.8903,-94.0367,2.0,38.56897089,11.80518954,-99999.0,'11111222,11111222,99999999' 
TABS,ioos:station:wmo:42046:1,2009-04-02T21:30:00Z,27.8903,-94.0367,2.0,34.17711931,12.72805563,-99999.0,'11111222,11111222,99999999' 
TABS,ioos:station:wmo:42046:1,2009-04-02T22:00:00Z,27.8903,-94.0367,2.0,40.87675937,13.76765049,-99999.0,'11111222,11111222,99999999' 
TABS,ioos:station:wmo:42046:1,2009-04-02T22:30:00Z,27.8903,-94.0367,2.0,38.68512151,14.20712849,-99999.0,'11111222,11111222,99999999' 
TABS,ioos:station:wmo:42046:1,2009-04-02T23:00:00Z,27.8903,-94.0367,2.0,53.13018857,13.85,-99999.0,'11111222,11111222,99999999' 
TABS,ioos:station:wmo:42046:1,2009-04-02T23:30:00Z,27.8903,-94.0367,2.0,44.57039594,11.31402669,-99999.0,'11111222,11111222,99999999' 
TABS,ioos:station:wmo:42046:1,2009-04-03T00:00:00Z,27.8903,-94.0367,2.0,48.33101482,13.38693393,-99999.0,'11111222,11111222,99999999' 
TABS,ioos:station:wmo:42046:1,2009-04-03T00:30:00Z,27.8903,-94.0367,2.0,49.19946238,10.91166807,-99999.0,'11111222,11111222,99999999' 
TABS,ioos:station:wmo:42046:1,2009-04-03T01:00:00Z,27.8903,-94.0367,2.0,35.52370681,9.448608363,-99999.0,'11133222,11111222,99999999' 
TABS,ioos:station:wmo:42046:1,2009-04-03T01:30:00Z,27.8903,-94.0367,2.0,57.09187194,9.552826807,-99999.0,'11133222,11111222,99999999' 
TABS,ioos:station:wmo:42046:1,2009-04-03T02:00:00Z,27.8903,-94.0367,2.0,57.7443166,8.975087743,-99999.0,'11133222,11111222,99999999' 
TABS,ioos:station:wmo:42046:1,2009-04-03T02:30:00Z,27.8903,-94.0367,2.0,53.11579991,7.964000251,-99999.0,'11133222,11111222,99999999' 
TABS,ioos:station:wmo:42046:1,2009-04-03T03:00:00Z,27.8903,-94.0367,2.0,35.07846989,4.350126435,-99999.0,'11133222,11111222,99999999' 
TABS,ioos:station:wmo:42046:1,2009-04-03T03:30:00Z,27.8903,-94.0367,2.0,95.92749033,1.839836949,-99999.0,'11133222,11111222,99999999' 
TABS,ioos:station:wmo:42046:1,2009-04-03T04:00:00Z,27.8903,-94.0367,2.0,74.94764287,3.966081189,-99999.0,'11133222,11111222,99999999' 
TABS,ioos:station:wmo:42046:1,2009-04-03T04:30:00Z,27.8903,-94.0367,2.0,77.96943204,1.24739729,-99999.0,'11133222,11111222,99999999' 
TABS,ioos:station:wmo:42046:1,2009-04-03T05:00:00Z,27.8903,-94.0367,2.0,166.2928606,4.642208526,-99999.0,'11133222,11111222,99999999' 
TABS,ioos:station:wmo:42046:1,2009-04-03T05:30:00Z,27.8903,-94.0367,2.0,128.3520735,6.108043877,-99999.0,'11133222,11111222,99999999' 
TABS,ioos:station:wmo:42046:1,2009-04-03T06:00:00Z,27.8903,-94.0367,2.0,192.8161843,6.266115224,-99999.0,'11133222,11111222,99999999' 
TABS,ioos:station:wmo:42046:1,2009-04-03T06:30:00Z,27.8903,-94.0367,2.0,176.6852115,5.188679986,-99999.0,'11133222,11111222,99999999' 
TABS,ioos:station:wmo:42046:1,2009-04-03T07:00:00Z,27.8903,-94.0367,2.0,196.085837,6.712830997,-99999.0,'11133222,11111222,99999999' 
TABS,ioos:station:wmo:42046:1,2009-04-03T07:30:00Z,27.8903,-94.0367,2.0,184.6298251,8.547894478,-99999.0,'11133222,11111222,99999999' 
TABS,ioos:station:wmo:42046:1,2009-04-03T08:00:00Z,27.8903,-94.0367,2.0,217.1165634,5.568051724,-99999.0,'11133222,11111222,99999999' 
TABS,ioos:station:wmo:42046:1,2009-04-03T08:30:00Z,27.8903,-94.0367,2.0,231.8018301,8.716340975,-99999.0,'11133222,11111222,99999999' 
TABS,ioos:station:wmo:42046:1,2009-04-03T09:00:00Z,27.8903,-94.0367,2.0,223.7915194,8.048664485,-99999.0,'11133222,11111222,99999999' 
TABS,ioos:station:wmo:42046:1,2009-04-03T09:30:00Z,27.8903,-94.0367,2.0,228.917924,10.34794666,-99999.0,'11111222,11111222,99999999' 
TABS,ioos:station:wmo:42046:1,2009-04-03T10:00:00Z,27.8903,-94.0367,2.0,240.4989234,5.239274759,-99999.0,'11133222,11111222,99999999' 
TABS,ioos:station:wmo:42046:1,2009-04-03T10:30:00Z,27.8903,-94.0367,2.0,219.9929766,6.643869355,-99999.0,'11133222,11111222,99999999' 
TABS,ioos:station:wmo:42046:1,2009-04-03T11:00:00Z,27.8903,-94.0367,2.0,231.9380539,5.385164807,-99999.0,'11133222,11111222,99999999' 
TABS,ioos:station:wmo:42046:1,2009-04-03T11:30:00Z,27.8903,-94.0367,2.0,272.9056659,8.681157757,-99999.0,'11133222,11111222,99999999' 
TABS,ioos:station:wmo:42046:1,2009-04-03T12:00:00Z,27.8903,-94.0367,2.0,258.133662,9.094333401,-99999.0,'11133222,11111222,99999999' 
TABS,ioos:station:wmo:42046:1,2009-04-03T12:30:00Z,27.8903,-94.0367,2.0,257.9922402,8.700356315,-99999.0,'11133222,11111222,99999999' 
TABS,ioos:station:wmo:42046:1,2009-04-03T13:00:00Z,27.8903,-94.0367,2.0,284.5781069,9.495693761,-99999.0,'11133222,11111222,99999999' 
TABS,ioos:station:wmo:42046:1,2009-04-03T13:30:00Z,27.8903,-94.0367,2.0,270.4130367,9.720252054,-99999.0,'11133222,11111222,99999999' 
TABS,ioos:station:wmo:42046:1,2009-04-03T14:00:00Z,27.8903,-94.0367,2.0,298.1789451,15.24708497,-99999.0,'11111222,11111222,99999999' 
TABS,ioos:station:wmo:42046:1,2009-04-03T14:30:00Z,27.8903,-94.0367,2.0,288.4818328,15.58370944,-99999.0,'11111222,11111222,99999999' 
TABS,ioos:station:wmo:42046:1,2009-04-03T15:00:00Z,27.8903,-94.0367,2.0,284.3222084,13.138318,-99999.0,'11111222,11111222,99999999' 
TABS,ioos:station:wmo:42046:1,2009-04-03T15:30:00Z,27.8903,-94.0367,2.0,290.6313094,17.90848123,-99999.0,'11111222,11111222,99999999' 
TABS,ioos:station:wmo:42046:1,2009-04-03T16:00:00Z,27.8903,-94.0367,2.0,297.4775195,14.88962726,-99999.0,'11111222,11111222,99999999' 
TABS,ioos:station:wmo:42046:1,2009-04-03T16:30:00Z,27.8903,-94.0367,2.0,308.4732175,22.02061761,-99999.0,'11111222,11111222,99999999' 
TABS,ioos:station:wmo:42046:1,2009-04-03T17:00:00Z,27.8903,-94.0367,2.0,304.7794884,19.84521101,-99999.0,'11111222,11111222,99999999' 
TABS,ioos:station:wmo:42046:1,2009-04-03T17:30:00Z,27.8903,-94.0367,2.0,298.134348,16.98706861,-99999.0,'11111222,11111222,99999999' 
TABS,ioos:station:wmo:42046:1,2009-04-03T18:00:00Z,27.8903,-94.0367,2.0,310.8670719,20.60210669,-99999.0,'11111222,11111222,99999999' 
TABS,ioos:station:wmo:42046:1,2009-04-03T18:30:00Z,27.8903,-94.0367,2.0,307.9329101,19.19530151,-99999.0,'11111222,11111222,99999999' 
TABS,ioos:station:wmo:42046:1,2009-04-03T19:00:00Z,27.8903,-94.0367,2.0,311.2878634,18.56515553,-99999.0,'11111222,11111222,99999999' 
TABS,ioos:station:wmo:42046:1,2009-04-03T19:30:00Z,27.8903,-94.0367,2.0,310.6974018,16.86962062,-99999.0,'11111222,11111222,99999999' 
TABS,ioos:station:wmo:42046:1,2009-04-03T20:00:00Z,27.8903,-94.0367,2.0,312.022302,17.1492857,-99999.0,'11111222,11111222,99999999' 
TABS,ioos:station:wmo:42046:1,2009-04-03T20:30:00Z,27.8903,-94.0367,2.0,320.5676622,18.29429693,-99999.0,'11111222,11111222,99999999' 
TABS,ioos:station:wmo:42046:1,2009-04-03T21:00:00Z,27.8903,-94.0367,2.0,324.207456,19.57745898,-99999.0,'11111222,11111222,99999999' 
TABS,ioos:station:wmo:42046:1,2009-04-03T21:30:00Z,27.8903,-94.0367,2.0,327.0177379,19.76547495,-99999.0,'11111222,11111222,99999999' 
TABS,ioos:station:wmo:42046:1,2009-04-03T22:00:00Z,27.8903,-94.0367,2.0,326.295598,21.7331544,-99999.0,'11111222,11111222,99999999' 
TABS,ioos:station:wmo:42046:1,2009-04-03T22:30:00Z,27.8903,-94.0367,2.0,322.4977225,26.98764532,-99999.0,'11111222,11111222,99999999' 
TABS,ioos:station:wmo:42046:1,2009-04-03T23:00:00Z,27.8903,-94.0367,2.0,325.4217053,26.11287805,-99999.0,'11111222,11111222,99999999' 
TABS,ioos:station:wmo:42046:1,2009-04-03T23:30:00Z,27.8903,-94.0367,2.0,337.3126526,27.97463494,-99999.0,'11111222,11111222,99999999' 
TABS,ioos:station:wmo:42046:1,2009-04-04T00:00:00Z,27.8903,-94.0367,2.0,349.029998,25.8014922,-99999.0,'11111222,11111222,99999999' 
TABS,ioos:station:wmo:42046:1,2009-04-04T00:30:00Z,27.8903,-94.0367,2.0,359.0396549,25.05352071,-99999.0,'11111222,11144222,99999999' 
TABS,ioos:station:wmo:42046:1,2009-04-04T01:00:00Z,27.8903,-94.0367,2.0,9.501599437,21.68751945,-99999.0,'11111222,11111222,99999999' 
TABS,ioos:station:wmo:42046:1,2009-04-04T01:30:00Z,27.8903,-94.0367,2.0,9.560004776,21.25517584,-99999.0,'11111222,11111222,99999999' 
TABS,ioos:station:wmo:42046:1,2009-04-04T02:00:00Z,27.8903,-94.0367,2.0,13.84274642,21.5251597,-99999.0,'11111222,11111222,99999999' 
TABS,ioos:station:wmo:42046:1,2009-04-04T02:30:00Z,27.8903,-94.0367,2.0,20.63959149,18.49720249,-99999.0,'11111222,11111222,99999999' 
TABS,ioos:station:wmo:42046:1,2009-04-04T03:00:00Z,27.8903,-94.0367,2.0,22.59493576,17.56846322,-99999.0,'11111222,11111222,99999999' 
TABS,ioos:station:wmo:42046:1,2009-04-04T03:30:00Z,27.8903,-94.0367,2.0,22.71289866,14.71078856,-99999.0,'11111222,11111222,99999999' 
TABS,ioos:station:wmo:42046:1,2009-04-04T04:00:00Z,27.8903,-94.0367,2.0,31.63107379,12.81352801,-99999.0,'11111222,11111222,99999999' 
TABS,ioos:station:wmo:42046:1,2009-04-04T04:30:00Z,27.8903,-94.0367,2.0,23.52019558,11.70221347,-99999.0,'11111222,11111222,99999999' 
TABS,ioos:station:wmo:42046:1,2009-04-04T05:00:00Z,27.8903,-94.0367,2.0,28.93144197,10.83180502,-99999.0,'11111222,11111222,99999999' 
TABS,ioos:station:wmo:42046:1,2009-04-04T05:30:00Z,27.8903,-94.0367,2.0,21.19108972,6.971398712,-99999.0,'11133222,11111222,99999999' 
TABS,ioos:station:wmo:42046:1,2009-04-04T06:00:00Z,27.8903,-94.0367,2.0,10.72215445,8.600145348,-99999.0,'11133222,11111222,99999999' 
TABS,ioos:station:wmo:42046:1,2009-04-04T06:30:00Z,27.8903,-94.0367,2.0,19.91761697,7.455984174,-99999.0,'11133222,11111222,99999999' 
TABS,ioos:station:wmo:42046:1,2009-04-04T07:00:00Z,27.8903,-94.0367,2.0,351.3288888,5.239895037,-99999.0,'11133222,11111222,99999999' 
TABS,ioos:station:wmo:42046:1,2009-04-04T07:30:00Z,27.8903,-94.0367,2.0,3.90069508,3.08715079,-99999.0,'11133222,11111222,99999999' 
TABS,ioos:station:wmo:42046:1,2009-04-04T08:00:00Z,27.8903,-94.0367,2.0,20.38932756,4.822115718,-99999.0,'11133222,11111222,99999999' 
TABS,ioos:station:wmo:42046:1,2009-04-04T08:30:00Z,27.8903,-94.0367,2.0,325.7134137,2.92897593,-99999.0,'11133222,11111222,99999999' 
TABS,ioos:station:wmo:42046:1,2009-04-04T09:00:00Z,27.8903,-94.0367,2.0,349.6539296,6.180493508,-99999.0,'11133222,11111222,99999999' 
TABS,ioos:station:wmo:42046:1,2009-04-04T09:30:00Z,27.8903,-94.0367,2.0,319.2056629,3.857045501,-99999.0,'11133222,11111222,99999999' 
TABS,ioos:station:wmo:42046:1,2009-04-04T10:00:00Z,27.8903,-94.0367,2.0,319.641445,7.690253572,-99999.0,'11133222,11111222,99999999' 
TABS,ioos:station:wmo:42046:1,2009-04-04T10:30:00Z,27.8903,-94.0367,2.0,309.4281309,3.495482799,-99999.0,'11133222,11111222,99999999' 
TABS,ioos:station:wmo:42046:1,2009-04-04T11:00:00Z,27.8903,-94.0367,2.0,322.350356,5.582517353,-99999.0,'11133222,11111222,99999999' 
TABS,ioos:station:wmo:42046:1,2009-04-04T11:30:00Z,27.8903,-94.0367,2.0,309.1631085,6.048842865,-99999.0,'11133222,11111222,99999999' 
TABS,ioos:station:wmo:42046:1,2009-04-04T12:00:00Z,27.8903,-94.0367,2.0,297.3502327,5.876937978,-99999.0,'11133222,11111222,99999999' 
TABS,ioos:station:wmo:42046:1,2009-04-04T12:30:00Z,27.8903,-94.0367,2.0,291.3312089,11.07895753,-99999.0,'11111222,11111222,99999999' 
TABS,ioos:station:wmo:42046:1,2009-04-04T13:00:00Z,27.8903,-94.0367,2.0,288.0334935,10.82158029,-99999.0,'11111222,11111222,99999999' 
TABS,ioos:station:wmo:42046:1,2009-04-04T13:30:00Z,27.8903,-94.0367,2.0,303.8884809,12.03429267,-99999.0,'11111222,11111222,99999999' 
TABS,ioos:station:wmo:42046:1,2009-04-04T14:00:00Z,27.8903,-94.0367,2.0,303.5222891,14.17819805,-99999.0,'11111222,11111222,99999999' 
TABS,ioos:station:wmo:42046:1,2009-04-04T14:30:00Z,27.8903,-94.0367,2.0,299.7901528,15.82063526,-99999.0,'11111222,11111222,99999999' 
TABS,ioos:station:wmo:42046:1,2009-04-04T15:00:00Z,27.8903,-94.0367,2.0,297.3920777,21.38798027,-99999.0,'11111222,11111222,99999999' 
TABS,ioos:station:wmo:42046:1,2009-04-04T15:30:00Z,27.8903,-94.0367,2.0,307.2173387,20.46837561,-99999.0,'11111222,11111222,99999999' 
TABS,ioos:station:wmo:42046:1,2009-04-04T16:00:00Z,27.8903,-94.0367,2.0,312.2060374,18.71107961,-99999.0,'11111222,11111222,99999999' 